| time (UTC) | temp C | wind direction | speed KPH | gust KPH | rain 1hr cm | rain 24hr cm | rain mn cm | humidity % | barometer mb |
| 20260508231520 | 22 | 237 | 14.5 | 27.4 | 0.00 | 0.00 | 0.00 | 29 | 1001.6 |
| 20260508230018 | 22 | 226 | 6.4 | 27.4 | 0.00 | 0.00 | 0.00 | 26 | 1001.8 |
| 20260508224521 | 22 | 232 | 11.3 | 22.5 | 0.00 | 0.00 | 0.00 | 32 | 1001.9 |
| 20260508223033 | 22 | 223 | 11.3 | 29.0 | 0.00 | 0.00 | 0.00 | 25 | 1002.1 |
| 20260508221514 | 21 | 240 | 12.9 | 30.6 | 0.00 | 0.00 | 0.00 | 33 | 1002.2 |
| 20260508220012 | 21 | 239 | 9.7 | 22.5 | 0.00 | 0.00 | 0.00 | 26 | 1002.4 |
| 20260508214510 | 21 | 252 | 12.9 | 32.2 | 0.00 | 0.00 | 0.00 | 30 | 1002.5 |
| 20260508213008 | 22 | 244 | 14.5 | 29.0 | 0.00 | 0.00 | 0.00 | 23 | 1002.6 |
| 20260508211507 | 21 | 223 | 16.1 | 35.4 | 0.00 | 0.00 | 0.00 | 26 | 1002.9 |
| 20260508210005 | 22 | 255 | 14.5 | 32.2 | 0.00 | 0.00 | 0.00 | 27 | 1003.0 |
| 20260508204504 | 22 | 242 | 8.0 | 35.4 | 0.00 | 0.00 | 0.00 | 26 | 1003.3 |
| 20260508203119 | 21 | 236 | 11.3 | 29.0 | 0.00 | 0.00 | 0.00 | 25 | 1003.5 |
| 20260508201558 | 22 | 261 | 20.9 | 35.4 | 0.00 | 0.00 | 0.00 | 30 | 1003.8 |
| 20260508194555 | 21 | 223 | 11.3 | 27.4 | 0.00 | 0.00 | 0.00 | 23 | 1004.3 |
| 20260508193114 | 21 | 212 | 14.5 | 32.2 | 0.00 | 0.00 | 0.00 | 25 | 1004.5 |
| 20260508191551 | 22 | 240 | 9.7 | 29.0 | 0.00 | 0.00 | 0.00 | 26 | 1004.8 |
| 20260508190045 | 21 | 267 | 3.2 | 17.7 | 0.00 | 0.00 | 0.00 | 30 | 1004.8 |
| 20260508184544 | 21 | 234 | 16.1 | 33.8 | 0.00 | 0.00 | 0.00 | 24 | 1005.3 |
| 20260508183042 | 20 | 221 | 6.4 | 27.4 | 0.00 | 0.00 | 0.00 | 24 | 1005.4 |
| 20260508181543 | 20 | 240 | 4.8 | 22.5 | 0.00 | 0.00 | 0.00 | 27 | 1005.7 |
| 20260508180038 | 20 | 243 | 9.7 | 27.4 | 0.00 | 0.00 | 0.00 | 25 | 1005.9 |
| 20260508174538 | 20 | 251 | 17.7 | 29.0 | 0.00 | 0.00 | 0.00 | 30 | 1006.1 |
| 20260508173032 | 20 | 250 | 16.1 | 27.4 | 0.00 | 0.00 | 0.00 | 25 | 1006.5 |
| 20260508171536 | 20 | 242 | 11.3 | 19.3 | 0.00 | 0.00 | 0.00 | 27 | 1006.7 |
| 20260508170028 | 20 | 229 | 14.5 | 27.4 | 0.00 | 0.00 | 0.00 | 22 | 1007.0 |
| 20260508164524 | 18 | 235 | 9.7 | 17.7 | 0.00 | 0.00 | 0.00 | 27 | 1007.1 |
| 20260508163021 | 18 | 240 | 11.3 | 20.9 | 0.00 | 0.00 | 0.00 | 27 | 1007.3 |
| 20260508161523 | 18 | 244 | 11.3 | 24.1 | 0.00 | 0.00 | 0.00 | 27 | 1007.6 |
| 20260508160017 | 17 | 241 | 11.3 | 22.5 | 0.00 | 0.00 | 0.00 | 29 | 1007.8 |
| 20260508154515 | 18 | 233 | 11.3 | 17.7 | 0.00 | 0.00 | 0.00 | 30 | 1007.9 |
| 20260508153012 | 17 | 230 | 4.8 | 22.5 | 0.00 | 0.00 | 0.00 | 30 | 1008.1 |
| 20260508151510 | 17 | 232 | 8.0 | 16.1 | 0.00 | 0.00 | 0.00 | 32 | 1008.3 |
| 20260508150010 | 16 | 232 | 0.0 | 9.7 | 0.00 | 0.00 | 0.00 | 35 | 1008.4 |
| 20260508144600 | 15 | 173 | 1.6 | 11.3 | 0.00 | 0.00 | 0.00 | 36 | 1008.5 |
| 20260508143107 | 13 | 203 | 0.0 | 11.3 | 0.00 | 0.00 | 0.00 | 36 | 1008.7 |
| 20260508141552 | 12 | 224 | 0.0 | 11.3 | 0.00 | 0.00 | 0.00 | 40 | 1009.1 |
| 20260508140049 | 11 | 224 | 0.0 | 8.0 | 0.00 | 0.00 | 0.00 | 43 | 1009.0 |
| 20260508134545 | 11 | 219 | 0.0 | 6.4 | 0.00 | 0.00 | 0.00 | 44 | 1009.1 |
| 20260508133042 | 10 | 215 | 0.0 | 6.4 | 0.00 | 0.00 | 0.00 | 42 | 1009.2 |
| 20260508131541 | 10 | 212 | 0.0 | 4.8 | 0.00 | 0.00 | 0.00 | 47 | 1009.3 |
| 20260508130034 | 8 | 298 | 0.0 | 0.0 | 0.00 | 0.00 | 0.00 | 52 | 1009.2 |
| 20260508124530 | 8 | 300 | 0.0 | 0.0 | 0.00 | 0.00 | 0.00 | 52 | 1009.3 |
| 20260508123029 | 7 | 300 | 0.0 | 0.0 | 0.00 | 0.00 | 0.00 | 54 | 1009.2 |
| 20260508121526 | 6 | 300 | 0.0 | 0.0 | 0.00 | 0.00 | 0.00 | 57 | 1009.0 |
| 20260508120033 | 5 | 300 | 0.0 | 0.0 | 0.00 | 0.00 | 0.00 | 56 | 1009.0 |
| 20260508114524 | 4 | 300 | 0.0 | 0.0 | 0.00 | 0.00 | 0.00 | 58 | 1008.9 |
| 20260508113023 | 5 | 300 | 0.0 | 0.0 | 0.00 | 0.00 | 0.00 | 57 | 1008.9 |
| 20260508111528 | 4 | 300 | 0.0 | 0.0 | 0.00 | 0.00 | 0.00 | 58 | 1008.8 |
| 20260508110022 | 5 | 300 | 0.0 | 0.0 | 0.00 | 0.00 | 0.00 | 56 | 1008.7 |
| 20260508104521 | 5 | 300 | 0.0 | 0.0 | 0.00 | 0.00 | 0.00 | 54 | 1008.7 |
| 20260508103025 | 4 | 300 | 0.0 | 0.0 | 0.00 | 0.00 | 0.00 | 56 | 1008.7 |
| 20260508101518 | 4 | 300 | 0.0 | 0.0 | 0.00 | 0.00 | 0.00 | 56 | 1008.9 |
| 20260508100017 | 4 | 300 | 0.0 | 0.0 | 0.00 | 0.00 | 0.00 | 56 | 1009.0 |
| 20260508094516 | 5 | 300 | 0.0 | 0.0 | 0.00 | 0.00 | 0.00 | 56 | 1009.1 |
| 20260508093015 | 4 | 300 | 0.0 | 0.0 | 0.00 | 0.00 | 0.00 | 57 | 1009.1 |
| 20260508091514 | 4 | 300 | 0.0 | 0.0 | 0.00 | 0.00 | 0.00 | 55 | 1009.0 |
| 20260508090012 | 5 | 300 | 0.0 | 0.0 | 0.00 | 0.00 | 0.00 | 53 | 1009.1 |
| 20260508084509 | 5 | 300 | 0.0 | 0.0 | 0.00 | 0.00 | 0.00 | 54 | 1009.2 |
| 20260508083007 | 5 | 300 | 0.0 | 0.0 | 0.00 | 0.00 | 0.00 | 53 | 1009.3 |
| 20260508081504 | 5 | 300 | 0.0 | 0.0 | 0.00 | 0.00 | 0.00 | 51 | 1009.5 |
| 20260508080004 | 6 | 300 | 0.0 | 0.0 | 0.00 | 0.00 | 0.00 | 50 | 1009.5 |
| 20260508074605 | 6 | 300 | 0.0 | 0.0 | 0.00 | 0.00 | 0.00 | 48 | 1009.6 |
| 20260508073058 | 6 | 300 | 0.0 | 0.0 | 0.00 | 0.00 | 0.00 | 48 | 1009.7 |
| 20260508071557 | 6 | 300 | 0.0 | 0.0 | 0.00 | 0.00 | 0.00 | 47 | 1009.8 |
| 20260508070056 | 7 | 300 | 0.0 | 0.0 | 0.00 | 0.00 | 0.00 | 47 | 1009.8 |
| 20260508064555 | 7 | 300 | 0.0 | 0.0 | 0.00 | 0.00 | 0.00 | 48 | 1009.9 |
| 20260508063059 | 7 | 300 | 0.0 | 0.0 | 0.00 | 0.00 | 0.00 | 49 | 1009.9 |
| 20260508061556 | 6 | 300 | 0.0 | 0.0 | 0.00 | 0.00 | 0.00 | 50 | 1010.0 |
| 20260508060051 | 6 | 300 | 0.0 | 0.0 | 0.00 | 0.00 | 0.00 | 51 | 1010.1 |
| 20260508054549 | 6 | 300 | 0.0 | 0.0 | 0.00 | 0.00 | 0.00 | 56 | 1010.1 |
| 20260508053056 | 6 | 300 | 0.0 | 0.0 | 0.00 | 0.00 | 0.00 | 55 | 1010.0 |
| 20260508051548 | 7 | 300 | 0.0 | 0.0 | 0.00 | 0.00 | 0.00 | 51 | 1010.0 |
| 20260508050042 | 7 | 300 | 0.0 | 0.0 | 0.00 | 0.00 | 0.00 | 52 | 1010.0 |
| 20260508044542 | 8 | 300 | 0.0 | 0.0 | 0.00 | 0.00 | 0.00 | 47 | 1009.9 |
| 20260508043049 | 8 | 300 | 0.0 | 0.0 | 0.00 | 0.00 | 0.00 | 44 | 1010.0 |
| 20260508041542 | 8 | 300 | 0.0 | 0.0 | 0.00 | 0.00 | 0.00 | 46 | 1010.0 |
| 20260508040040 | 8 | 300 | 0.0 | 0.0 | 0.00 | 0.00 | 0.00 | 48 | 1010.0 |
| 20260508034547 | 8 | 300 | 0.0 | 0.0 | 0.00 | 0.00 | 0.00 | 49 | 1010.1 |
| 20260508033039 | 9 | 300 | 0.0 | 0.0 | 0.00 | 0.00 | 0.00 | 49 | 1010.0 |
| 20260508031539 | 9 | 300 | 0.0 | 0.0 | 0.00 | 0.00 | 0.00 | 49 | 1010.0 |
| 20260508030039 | 10 | 300 | 0.0 | 0.0 | 0.00 | 0.00 | 0.00 | 52 | 1010.1 |
| 20260508024538 | 10 | 300 | 0.0 | 0.0 | 0.00 | 0.00 | 0.00 | 44 | 1010.0 |
| 20260508023037 | 10 | 300 | 0.0 | 0.0 | 0.00 | 0.00 | 0.00 | 49 | 1009.8 |
| 20260508021538 | 11 | 300 | 0.0 | 0.0 | 0.00 | 0.00 | 0.00 | 54 | 1009.7 |
| 20260508020039 | 11 | 300 | 0.0 | 0.0 | 0.00 | 0.00 | 0.00 | 49 | 1009.6 |
| 20260508014536 | 13 | 300 | 0.0 | 0.0 | 0.00 | 0.00 | 0.00 | 47 | 1009.4 |
| 20260508013037 | 13 | 300 | 0.0 | 4.8 | 0.00 | 0.00 | 0.00 | 45 | 1009.4 |
| 20260508011535 | 14 | 300 | 3.2 | 6.4 | 0.00 | 0.00 | 0.00 | 40 | 1009.2 |
| 20260508010034 | 15 | 301 | 3.2 | 9.7 | 0.00 | 0.00 | 0.00 | 41 | 1009.0 |
| 20260508004533 | 15 | 304 | 0.0 | 11.3 | 0.00 | 0.00 | 0.00 | 36 | 1008.9 |
| 20260508003033 | 15 | 285 | 6.4 | 11.3 | 0.00 | 0.00 | 0.00 | 38 | 1008.8 |
| 20260508001533 | 16 | 281 | 6.4 | 17.7 | 0.00 | 0.00 | 0.00 | 37 | 1008.8 |
| 20260508000031 | 16 | 263 | 9.7 | 17.7 | 0.00 | 0.00 | 0.00 | 35 | 1008.9 |
| 20260507234539 | 16 | 269 | 11.3 | 17.7 | 0.00 | 0.00 | 0.00 | 35 | 1009.0 |
| 20260507233030 | 16 | 303 | 8.0 | 19.3 | 0.00 | 0.00 | 0.00 | 31 | 1009.0 |